GW0529 Weather Reports


time (UTC)temp
F
wind
direction
speed
knots
gust
knots
rain 1hr
in
rain 24hr
in
rain mn
in
humidity
%
barometer
mb
20260507015053 71 163 2.6 9.6 0.00 0.00 0.00 59 1018.7
20260507014549 71 162 1.7 7.0 0.00 0.00 0.00 58 1018.5
20260507014044 71 188 1.7 5.2 0.00 0.00 0.00 57 1018.6
20260507013541 71 169 3.5 8.7 0.00 0.00 0.00 57 1018.6
20260507013039 72 214 4.3 8.7 0.00 0.00 0.00 57 1018.5
20260507012536 72 192 2.6 7.0 0.00 0.00 0.00 56 1018.4
20260507012032 73 154 1.7 6.1 0.00 0.00 0.00 55 1018.4
20260507011530 72 209 3.5 7.0 0.00 0.00 0.00 56 1018.5
20260507011026 72 201 3.5 8.7 0.00 0.00 0.00 56 1018.2
20260507010520 73 237 5.2 12.2 0.00 0.00 0.00 56 1018.3
20260507010017 73 213 5.2 8.7 0.00 0.00 0.00 55 1018.2
20260507005514 73 277 2.6 8.7 0.00 0.00 0.00 55 1018.2
20260507005011 73 178 4.3 7.8 0.00 0.00 0.00 54 1018.2
20260507004508 74 191 3.5 6.1 0.00 0.00 0.00 53 1018.2
20260507004006 74 180 4.3 7.0 0.00 0.00 0.00 53 1018.1
20260507003500 74 197 1.7 5.2 0.00 0.00 0.00 53 1018.1
20260507002955 74 212 2.6 7.8 0.00 0.00 0.00 52 1018.0
20260507002452 75 195 3.5 7.0 0.00 0.00 0.00 52 1018.1
20260507001949 75 170 4.3 7.8 0.00 0.00 0.00 52 1018.0
20260507001446 75 223 6.1 7.8 0.00 0.00 0.00 52 1017.8
20260507000943 75 202 3.5 7.8 0.00 0.00 0.00 51 1018.0
20260507000439 75 242 2.6 7.0 0.00 0.00 0.00 52 1017.9
20260506235934 75 214 6.1 7.8 0.00 0.00 0.00 51 1018.0
20260506235433 76 294 5.2 7.0 0.00 0.00 0.00 51 1017.8
20260506234932 76 271 6.1 7.0 0.00 0.00 0.00 50 1018.0
20260506234431 76 264 7.8 8.7 0.00 0.00 0.00 50 1017.9
20260506233928 76 160 2.6 8.7 0.00 0.00 0.00 50 1017.8
20260506233425 76 189 3.5 7.8 0.00 0.00 0.00 48 1018.1
20260506232921 76 177 2.6 8.7 0.00 0.00 0.00 47 1017.8
20260506232418 76 253 3.5 6.1 0.00 0.00 0.00 47 1017.9
20260506231913 76 167 1.7 7.0 0.00 0.00 0.00 48 1017.8
20260506231411 76 242 5.2 9.6 0.00 0.00 0.00 47 1018.1
20260506230909 76 236 2.6 7.0 0.00 0.00 0.00 48 1018.1
20260506230405 76 157 4.3 7.0 0.00 0.00 0.00 47 1018.1
20260506225901 75 177 3.5 8.7 0.00 0.00 0.00 47 1018.1
20260506225359 76 184 3.5 8.7 0.00 0.00 0.00 47 1018.2
20260506224855 75 191 5.2 7.0 0.00 0.00 0.00 47 1018.2
20260506224353 76 211 4.3 8.7 0.00 0.00 0.00 47 1018.3
20260506223849 77 160 3.5 6.1 0.00 0.00 0.00 47 1018.4
20260506223344 75 166 0.9 7.0 0.00 0.00 0.00 48 1018.4
20260506222842 76 319 4.3 6.1 0.00 0.00 0.00 47 1018.6
20260506222337 75 234 6.1 7.8 0.00 0.00 0.00 47 1018.6
20260506221835 74 196 5.2 7.8 0.00 0.00 0.00 49 1018.6
20260506221332 76 201 8.7 9.6 0.00 0.00 0.00 47 1018.7
20260506220830 76 247 6.1 9.6 0.00 0.00 0.00 48 1018.6
20260506220325 76 260 5.2 7.0 0.00 0.00 0.00 47 1018.9
20260506215822 75 179 1.7 5.2 0.00 0.00 0.00 48 1018.8
20260506215318 74 236 2.6 3.5 0.00 0.00 0.00 50 1018.8
20260506214814 74 210 2.6 3.5 0.00 0.00 0.00 50 1018.6
20260506214311 74 188 2.6 7.0 0.00 0.00 0.00 50 1019.0
20260506213810 74 198 4.3 8.7 0.00 0.00 0.00 49 1019.0
20260506213306 74 160 0.9 5.2 0.00 0.00 0.00 50 1018.9
20260506212803 74 239 2.6 5.2 0.00 0.00 0.00 49 1019.4
20260506212259 75 229 7.0 8.7 0.00 0.00 0.00 49 1019.1
20260506211754 75 233 4.3 5.2 0.00 0.00 0.00 49 1019.4
20260506211251 74 319 2.6 5.2 0.00 0.00 0.00 48 1019.2
20260506210748 74 165 0.9 6.1 0.00 0.00 0.00 49 1019.4
20260506210245 74 194 2.6 3.5 0.00 0.00 0.00 48 1019.7
20260506205742 73 215 2.6 8.7 0.00 0.00 0.00 50 1019.4
20260506205237 73 198 2.6 3.5 0.00 0.00 0.00 50 1019.6
20260506204735 73 205 3.5 9.6 0.00 0.00 0.00 50 1019.7
20260506204232 73 219 2.6 7.0 0.00 0.00 0.00 49 1020.0
20260506203730 74 199 1.7 7.0 0.00 0.00 0.00 49 1019.9
20260506203226 74 142 3.5 5.2 0.00 0.00 0.00 47 1019.8
20260506202724 72 171 0.9 5.2 0.00 0.00 0.00 51 1020.0
20260506202221 72 193 2.6 6.1 0.00 0.00 0.00 52 1020.1
20260506201717 72 206 4.3 6.1 0.00 0.00 0.00 50 1019.8
20260506201214 71 233 5.2 6.1 0.00 0.00 0.00 52 1020.0
20260506200711 71 182 1.7 6.1 0.00 0.00 0.00 51 1020.0
20260506200208 70 181 0.9 0.9 0.00 0.00 0.00 52 1020.3
20260506195705 71 150 3.5 6.1 0.00 0.00 0.00 50 1020.0
20260506195201 72 231 3.5 5.2 0.00 0.00 0.00 49 1020.5
20260506194658 71 94 0.9 3.5 0.00 0.00 0.00 51 1020.3
20260506194154 70 178 3.5 6.1 0.00 0.00 0.00 52 1020.4
20260506193652 70 283 4.3 6.1 0.00 0.00 0.00 50 1020.5
20260506193149 71 174 2.6 3.5 0.00 0.00 0.00 49 1020.7
20260506192646 70 221 1.7 2.6 0.00 0.00 0.00 50 1020.9
20260506192142 69 129 1.7 2.6 0.00 0.00 0.00 51 1020.9
20260506191639 69 222 0.9 2.6 0.00 0.00 0.00 52 1021.0
20260506191135 71 193 1.7 5.2 0.00 0.00 0.00 50 1020.6
20260506190632 69 155 0.9 1.7 0.00 0.00 0.00 51 1021.0
20260506190129 69 155 0.9 2.6 0.00 0.00 0.00 52 1021.1
20260506185626 67 157 0.0 5.2 0.00 0.00 0.00 53 1021.1
20260506185122 69 149 1.7 3.5 0.00 0.00 0.00 53 1021.1
20260506184620 68 166 1.7 2.6 0.00 0.00 0.00 52 1021.4
20260506184117 67 181 1.7 5.2 0.00 0.00 0.00 55 1021.2
20260506183614 67 104 0.9 0.9 0.00 0.00 0.00 53 1021.4
20260506183109 67 196 2.6 2.6 0.00 0.00 0.00 54 1021.7
20260506182608 66 150 0.0 2.6 0.00 0.00 0.00 55 1021.4
20260506182104 66 160 2.6 3.5 0.00 0.00 0.00 55 1021.5
20260506181602 66 166 3.5 6.1 0.00 0.00 0.00 55 1021.4
20260506181059 65 162 0.9 1.7 0.00 0.00 0.00 58 1021.4
20260506180555 65 147 0.0 5.2 0.00 0.00 0.00 58 1021.5
20260506180052 65 167 0.9 1.7 0.00 0.00 0.00 56 1021.4
20260506175548 65 159 2.6 2.6 0.00 0.00 0.00 57 1021.5
20260506175045 65 165 0.0 2.6 0.00 0.00 0.00 59 1021.4
20260506174544 65 211 2.6 5.2 0.00 0.00 0.00 59 1021.4
20260506174039 65 177 0.9 0.9 0.00 0.00 0.00 58 1021.5
20260506173537 64 162 0.0 1.7 0.00 0.00 0.00 61 1021.5
20260506173033 63 198 2.6 5.2 0.00 0.00 0.00 61 1021.5
20260506172531 64 153 0.9 6.1 0.00 0.00 0.00 61 1021.7
20260506172027 63 158 0.0 2.6 0.00 0.00 0.00 63 1021.5
20260506171525 62 149 3.5 3.5 0.00 0.00 0.00 63 1021.5
20260506171022 62 176 2.6 5.2 0.00 0.00 0.00 64 1021.4
20260506170520 63 184 3.5 5.2 0.00 0.00 0.00 63 1021.5
20260506170018 62 173 1.7 5.2 0.00 0.00 0.00 65 1021.4
20260506165516 61 153 0.0 2.6 0.00 0.00 0.00 65 1021.6
20260506165011 63 227 1.7 2.6 0.00 0.00 0.00 63 1021.7
20260506164508 62 158 0.0 1.7 0.00 0.00 0.00 65 1021.6
20260506164006 61 144 0.9 2.6 0.00 0.00 0.00 66 1021.6
20260506163501 62 153 1.7 3.5 0.00 0.00 0.00 65 1021.5
20260506162956 60 179 2.6 3.5 0.00 0.00 0.00 66 1021.7
20260506162454 61 161 0.9 1.7 0.00 0.00 0.00 68 1021.5
20260506161951 60 165 0.9 2.6 0.00 0.00 0.00 68 1021.8
20260506161449 60 154 1.7 3.5 0.00 0.00 0.00 69 1021.4
20260506160946 60 178 1.7 2.6 0.00 0.00 0.00 71 1021.7
20260506160443 59 140 1.7 3.5 0.00 0.00 0.00 71 1021.5
20260506155940 60 170 2.6 5.2 0.00 0.00 0.00 70 1021.5
20260506155438 59 171 2.6 3.5 0.00 0.00 0.00 72 1021.5
20260506153605 58 154 0.0 0.9 0.00 0.00 0.00 74 1021.4
20260506153102 58 155 0.0 1.7 0.00 0.00 0.00 74 1021.5
20260506152559 59 169 0.9 1.7 0.00 0.00 0.00 75 1021.5
20260506152057 58 168 0.0 1.7 0.00 0.00 0.00 76 1021.5
20260506151555 58 162 1.7 2.6 0.00 0.00 0.00 76 1021.5
20260506151052 57 156 0.9 1.7 0.00 0.00 0.00 78 1021.6
20260506150548 57 155 0.9 1.7 0.00 0.00 0.00 78 1021.5
20260506150045 56 171 0.9 1.7 0.00 0.00 0.00 79 1021.5
20260506145542 56 153 0.0 0.9 0.00 0.00 0.00 79 1021.6
20260506145039 56 155 0.9 1.7 0.00 0.00 0.00 80 1021.5
20260506144536 56 150 0.9 1.7 0.00 0.00 0.00 80 1021.6
20260506144033 56 161 0.9 2.6 0.00 0.00 0.00 81 1021.5
20260506143531 55 157 0.9 2.6 0.00 0.00 0.00 81 1021.4
20260506143029 56 141 1.7 1.7 0.00 0.00 0.00 81 1021.5
20260506142526 56 154 0.0 0.0 0.00 0.00 0.00 81 1021.2
20260506142024 56 159 0.0 0.0 0.00 0.00 0.00 82 1021.4
20260506141522 55 155 0.0 0.0 0.00 0.00 0.00 87 1021.5
20260506141020 53 154 0.0 0.0 0.00 0.00 0.00 89 1021.5
20260506140517 51 145 0.0 0.0 0.00 0.00 0.00 90 1021.6
20260506140014 51 156 0.0 0.0 0.00 0.00 0.00 91 1021.3
20260506135511 50 156 0.0 0.0 0.00 0.00 0.00 91 1021.4
20260506135007 49 156 0.0 0.0 0.00 0.00 0.00 92 1021.3
20260506134503 49 158 0.0 0.0 0.00 0.00 0.00 92 1021.3
20260506133959 49 157 0.0 0.0 0.00 0.00 0.00 92 1021.2
20260506133457 48 155 0.0 0.0 0.00 0.00 0.00 92 1021.1
20260506132954 48 156 0.0 0.0 0.00 0.00 0.00 92 1021.1
20260506132451 48 158 0.0 0.0 0.00 0.00 0.00 92 1021.1
20260506131948 48 157 0.0 0.0 0.00 0.00 0.00 92 1020.9
20260506131444 47 155 0.0 0.0 0.00 0.00 0.00 92 1021.3
20260506130942 47 153 0.0 0.0 0.00 0.00 0.00 92 1020.9
20260506130438 47 158 0.0 0.0 0.00 0.00 0.00 92 1020.8
20260506125936 47 158 0.0 0.0 0.00 0.00 0.00 92 1020.7
20260506125434 48 156 0.0 0.0 0.00 0.00 0.00 92 1020.7
20260506124932 48 157 0.0 0.0 0.00 0.00 0.00 92 1020.7
20260506124429 48 160 0.0 0.0 0.00 0.00 0.00 92 1020.5
20260506123927 48 158 0.0 0.0 0.00 0.00 0.00 92 1020.6
20260506123425 48 157 0.0 0.0 0.00 0.00 0.00 92 1020.6
20260506122922 48 155 0.0 0.0 0.00 0.00 0.00 92 1020.5
20260506122419 48 167 0.0 0.0 0.00 0.00 0.00 92 1020.6
20260506121917 47 157 0.0 0.0 0.00 0.00 0.00 91 1020.5
20260506121414 48 155 0.0 0.0 0.00 0.00 0.00 91 1020.4
20260506120911 48 157 0.0 0.0 0.00 0.00 0.00 91 1020.4
20260506120408 48 159 0.0 0.0 0.00 0.00 0.00 91 1020.4
20260506115905 48 155 0.0 0.0 0.00 0.00 0.00 91 1020.3
20260506115403 48 156 0.0 0.0 0.00 0.00 0.00 91 1020.5
20260506114901 48 157 0.0 0.0 0.00 0.00 0.00 91 1020.5
20260506114359 48 151 0.0 0.0 0.00 0.00 0.00 91 1020.6
20260506113858 48 158 0.0 0.0 0.00 0.00 0.00 91 1020.4
20260506113354 48 150 0.0 0.0 0.00 0.00 0.00 91 1020.6
20260506112851 48 154 0.0 0.0 0.00 0.00 0.00 91 1020.4
20260506112348 48 157 0.0 0.0 0.00 0.00 0.00 91 1020.4
20260506111845 48 157 0.0 0.0 0.00 0.00 0.00 91 1020.3
20260506111344 48 157 0.0 0.0 0.00 0.00 0.00 91 1020.4
20260506110841 48 156 0.0 0.0 0.00 0.00 0.00 91 1020.4
20260506110338 49 155 0.0 0.0 0.00 0.00 0.00 91 1020.5
20260506105835 48 156 0.0 0.0 0.00 0.00 0.00 91 1020.5
20260506105331 49 153 0.0 0.0 0.00 0.00 0.00 91 1020.3
20260506104829 49 156 0.0 0.0 0.00 0.00 0.00 91 1020.4
20260506104326 49 155 0.0 0.0 0.00 0.00 0.00 91 1020.4
20260506103824 49 157 0.0 0.0 0.00 0.00 0.00 91 1020.3
20260506103321 49 158 0.0 0.0 0.00 0.00 0.00 91 1020.5
20260506102818 49 156 0.0 0.0 0.00 0.00 0.00 91 1020.6
20260506102316 49 158 0.0 0.0 0.00 0.00 0.00 90 1020.5
20260506101813 49 156 0.0 0.0 0.00 0.00 0.00 90 1020.4
20260506101309 49 156 0.0 0.0 0.00 0.00 0.00 90 1020.3
20260506100807 49 158 0.0 0.0 0.00 0.00 0.00 90 1020.1
20260506100305 49 157 0.0 0.0 0.00 0.00 0.00 90 1020.4
20260506095804 49 157 0.0 0.0 0.00 0.00 0.00 90 1020.5
20260506095300 49 156 0.0 0.0 0.00 0.00 0.00 90 1020.5
20260506094756 49 151 0.0 0.0 0.00 0.00 0.00 90 1020.6
20260506094255 49 154 0.0 0.0 0.00 0.00 0.00 90 1020.4
20260506093753 49 156 0.0 0.0 0.00 0.00 0.00 90 1020.3
20260506093250 49 154 0.0 0.0 0.00 0.00 0.00 90 1020.3
20260506092748 50 158 0.0 0.0 0.00 0.00 0.00 89 1020.4
20260506092246 50 157 0.0 0.9 0.00 0.00 0.00 89 1020.3
20260506091743 50 157 0.9 0.9 0.00 0.00 0.00 90 1020.5
20260506091240 50 166 0.0 0.9 0.00 0.00 0.00 90 1020.3
20260506090738 49 165 0.0 0.9 0.00 0.00 0.00 90 1020.6
20260506090234 49 156 0.0 0.0 0.00 0.00 0.00 90 1020.7
20260506085731 49 155 0.0 0.0 0.00 0.00 0.00 89 1020.6
20260506085228 50 154 0.0 0.0 0.00 0.00 0.00 89 1020.6
20260506084724 50 157 0.0 0.0 0.00 0.00 0.00 89 1020.5
20260506084220 50 154 0.0 0.0 0.00 0.00 0.00 89 1020.6
20260506083718 50 156 0.0 0.0 0.00 0.00 0.00 89 1020.8
20260506083216 50 156 0.0 0.0 0.00 0.00 0.00 89 1020.8
20260506082713 50 156 0.0 0.0 0.00 0.00 0.00 89 1020.8
20260506082208 51 160 0.0 0.0 0.00 0.00 0.00 89 1020.7
20260506081706 51 157 0.0 0.9 0.00 0.00 0.00 89 1020.9
20260506081203 51 161 0.0 0.0 0.00 0.00 0.00 88 1020.8
20260506080701 51 156 0.0 0.0 0.00 0.00 0.00 88 1020.8
20260506080158 51 158 0.0 0.9 0.00 0.00 0.00 88 1020.8
20260506073142 52 158 0.0 0.0 0.00 0.00 0.00 86 1020.7
20260506072638 52 156 0.0 0.0 0.00 0.00 0.00 85 1020.7
20260506072136 52 158 0.0 0.0 0.00 0.00 0.00 85 1021.0
20260506071633 52 156 0.0 0.0 0.00 0.00 0.00 84 1020.7
20260506071131 53 157 0.0 0.0 0.00 0.00 0.00 84 1020.7
20260506070628 53 160 0.0 0.0 0.00 0.00 0.00 83 1020.9
20260506070125 53 170 0.9 0.9 0.00 0.00 0.00 83 1020.7
20260506062103 55 176 0.9 1.7 0.00 0.19 0.19 79 1020.1
20260506061558 55 168 0.9 1.7 0.00 0.19 0.19 79 1020.3
20260506061056 55 159 0.0 0.9 0.00 0.19 0.19 78 1020.3
20260506060554 55 166 0.9 0.9 0.00 0.19 0.19 78 1020.1
20260506051023 56 161 0.0 1.7 0.00 0.19 0.19 75 1019.9
20260506050521 56 182 0.9 1.7 0.00 0.19 0.19 74 1020.0
20260506045011 57 188 1.7 2.6 0.00 0.19 0.19 72 1019.6
20260506044509 57 167 0.0 3.5 0.00 0.19 0.19 71 1019.6
20260506044006 57 169 0.9 1.7 0.00 0.19 0.19 70 1019.4
20260506043502 57 164 0.9 0.9 0.00 0.19 0.19 69 1019.3
20260506043001 57 161 0.0 0.0 0.00 0.19 0.19 69 1019.2
20260506042500 57 191 1.7 1.7 0.00 0.19 0.19 68 1019.1
20260506041957 57 164 0.9 1.7 0.00 0.19 0.19 68 1019.0
20260506041455 57 166 0.9 0.9 0.00 0.19 0.19 68 1019.1
20260506040952 57 181 0.9 1.7 0.00 0.19 0.19 68 1018.9
20260506040450 57 197 0.9 2.6 0.00 0.19 0.19 67 1018.6
20260506035946 58 159 0.0 0.9 0.00 0.19 0.19 67 1019.0
20260506035443 58 183 2.6 2.6 0.00 0.19 0.19 67 1018.8
20260506034939 58 177 0.9 1.7 0.00 0.19 0.19 66 1018.9
20260506034437 58 162 0.0 1.7 0.00 0.19 0.19 66 1018.7
20260506033934 58 173 0.9 1.7 0.00 0.19 0.19 65 1018.7
20260506033431 58 205 1.7 2.6 0.00 0.19 0.19 65 1018.5
20260506032928 58 169 0.9 1.7 0.00 0.19 0.19 65 1018.4
20260506032425 59 171 0.9 3.5 0.00 0.19 0.19 65 1017.9
20260506031921 59 222 1.7 2.6 0.00 0.19 0.19 64 1018.3
20260506031419 59 165 0.9 3.5 0.00 0.19 0.19 65 1018.2
20260506030916 59 201 2.6 3.5 0.00 0.19 0.19 64 1018.2
20260506030414 59 183 1.7 2.6 0.00 0.19 0.19 64 1018.2
20260506025911 59 174 1.7 3.5 0.00 0.19 0.19 64 1018.1
20260506025408 59 183 1.7 5.2 0.00 0.19 0.19 63 1017.9
20260506024904 60 168 0.9 3.5 0.00 0.19 0.19 63 1017.8
20260506024402 60 213 1.7 5.2 0.00 0.19 0.19 62 1017.9
20260506023857 60 213 2.6 3.5 0.00 0.19 0.19 62 1017.6
20260506023354 60 315 2.6 3.5 0.00 0.19 0.19 61 1017.6
20260506022851 60 221 3.5 5.2 0.00 0.19 0.19 60 1017.5
20260506022349 60 251 3.5 6.1 0.00 0.19 0.19 60 1017.4
20260506021847 60 187 2.6 3.5 0.00 0.19 0.19 60 1017.4
20260506021343 61 263 4.3 6.1 0.00 0.19 0.19 60 1017.5
20260506020840 61 194 2.6 7.8 0.00 0.19 0.19 59 1017.3
20260506020338 61 178 3.5 7.0 0.00 0.19 0.19 58 1017.0
20260506015835 61 266 5.2 7.8 0.00 0.19 0.19 58 1017.4